Location: N�rnberg
(49.4471°N, 11.0632°E)
Time: 14:47:40
(UTC+01:00)

Tiangong - Visible Passes

Search period start: 15 February 2026 00:00
Search period end: 25 February 2026 00:00
Orbit: 386 x 391 km, 41.5° (Epoch: 15 February)

Date Brightness Start Highest point End Pass type
(mag) Time Alt. Az. Time Alt. Az. Time Alt. Az.
15 Feb 0.0 19:34:57 10° SW 19:37:02 19° S 19:37:02 19° S visible
16 Feb 0.0 18:36:43 10° SW 18:39:05 19° S 18:41:28 10° SE visible
16 Feb 1.0 20:13:29 10° SW 20:13:46 11° SW 20:13:46 11° SW visible
17 Feb 0.1 19:14:56 10° SW 19:17:08 17° S 19:18:12 15° SSE visible
18 Feb 0.1 18:16:29 10° SW 18:18:50 19° S 18:21:11 10° SE visible
18 Feb 0.8 19:54:05 10° SW 19:54:55 11° SSW 19:54:55 11° SSW visible
19 Feb 0.5 18:54:57 10° SW 18:56:45 14° SSW 18:58:33 10° SSE visible
21 Feb 0.9 18:35:27 10° SW 18:36:10 11° SSW 18:36:53 10° S visible
